Location: Byhalia Creek
(34.8270°N, 89.8040°W)
Time: 21:00:15
(UTC+00:00)

Cosmos 1461 - Pass Details

Date: 22 April 2026
Orbit: 423 x 480 km, 65.0° (Epoch: 21 May)

Event Time Altitude Azimuth Distance (km) Brightness Sun altitude
Exits shadow 09:54:18 18° 302° (WNW) 1,242 4.3 -16.9°
Maximum altitude 09:54:34 18° 308° (NW) 1,237 4.4 -16.8°
Drops below altitude 10° 09:57:13 10° 353° (N) 1,665 5.5 -16.3°
Sets 09:59:52 0° 13° (NNE) 2,544 6.8 -15.9°
